DLH648 EDDF-UAAA

Flight info

Callsign DLH648
Flight time 7h 0m
Altitude 31000
Route CINDY8S/18 CINDY Z74 HAREM DCT ASLEP DCT TAKUT L603 BESNI/N0471F370 L605 MIQ DCT ALUTU DCT BIBAG Q104 AKIMA DCT ARSIN DCT GAZDA DCT TEGRI DCT DINRO N743 UDROS DCT CRM DCT ROLIN DCT TAGAR/N0478F390 DCT BT DCT BARAD M747 LUSAL N199 RASAM L88 METKA B476 TIMGA A480 OTBOR/K0880F390 N147 ELAHA Z621 ARBOL M610 TIPSA
Aircraft A346/H-SDE2E3FGHIJ3J4J5M1RWXY/LB1D1

Departure

Time 2026-05-03 21:48
Airport Frankfurt Main Airport (EDDF)

Arrival

Time 2026-05-04 04:49
Airport Almaty International Airport (UAAA)
Time Latitude Longitude Altitude Speed Heading
2026-05-03 21:09 50.05036 8.58643 389 ft 0 kts 340°
2026-05-03 21:36 50.05035 8.58644 388 ft 1 kts 340°
2026-05-03 21:36 50.05028 8.58649 388 ft 2 kts 335°
2026-05-03 21:36 50.05014 8.58661 387 ft 2 kts 324°
2026-05-03 21:37 50.05001 8.58677 386 ft 2 kts 313°
2026-05-03 21:37 50.04992 8.58694 385 ft 2 kts 303°
2026-05-03 21:37 50.04985 8.58714 384 ft 2 kts 292°
2026-05-03 21:37 50.04980 8.58735 384 ft 2 kts 283°
2026-05-03 21:38 50.04978 8.58760 383 ft 2 kts 271°
2026-05-03 21:38 50.04979 8.58785 382 ft 2 kts 260°
2026-05-03 21:38 50.04982 8.58807 382 ft 0 kts 250°
2026-05-03 21:38 50.04984 8.58814 382 ft 0 kts 249°
2026-05-03 21:40 50.04975 8.58778 382 ft 10 kts 249°
2026-05-03 21:41 50.04938 8.58625 383 ft 22 kts 250°
2026-05-03 21:41 50.04880 8.58376 387 ft 26 kts 250°
2026-05-03 21:41 50.04818 8.58115 388 ft 27 kts 250°
2026-05-03 21:41 50.04728 8.57913 382 ft 25 kts 230°
2026-05-03 21:42 50.04596 8.57433 379 ft 27 kts 250°
2026-05-03 21:42 50.04538 8.57188 380 ft 24 kts 250°
2026-05-03 21:42 50.04480 8.56942 379 ft 25 kts 250°
2026-05-03 21:43 50.04342 8.56369 370 ft 0 kts 250°
2026-05-03 21:44 50.04335 8.56342 370 ft 8 kts 250°
2026-05-03 21:44 50.04303 8.56208 369 ft 18 kts 250°
2026-05-03 21:44 50.04248 8.55979 366 ft 31 kts 250°
2026-05-03 21:45 50.04069 8.55230 362 ft 35 kts 249°
2026-05-03 21:45 50.03979 8.54853 356 ft 37 kts 250°
2026-05-03 21:45 50.03800 8.54213 351 ft 22 kts 246°
2026-05-03 21:46 50.03745 8.53995 355 ft 23 kts 250°
2026-05-03 21:46 50.03688 8.53755 357 ft 23 kts 250°
2026-05-03 21:46 50.03625 8.53499 355 ft 26 kts 249°
2026-05-03 21:46 50.03553 8.53212 351 ft 32 kts 249°
2026-05-03 21:47 50.03472 8.52874 349 ft 34 kts 250°
2026-05-03 21:47 50.03401 8.52632 348 ft 15 kts 220°
2026-05-03 21:47 50.03293 8.52594 346 ft 19 kts 180°
2026-05-03 21:47 50.02946 8.52598 339 ft 84 kts 180°
2026-05-03 21:48 50.02156 8.52607 337 ft 141 kts 180°
2026-05-03 21:48 50.01016 8.52614 360 ft 184 kts 181°
2026-05-03 21:48 49.99762 8.52616 933 ft 179 kts 182°
2026-05-03 21:48 49.98513 8.52623 1465 ft 182 kts 183°
2026-05-03 21:49 49.97239 8.52730 2022 ft 188 kts 170°
2026-05-03 21:49 49.96113 8.53908 2357 ft 213 kts 131°
2026-05-03 21:49 49.95348 8.55932 2635 ft 227 kts 123°
2026-05-03 21:49 49.94588 8.58157 2916 ft 241 kts 121°
2026-05-03 21:50 49.94019 8.60695 3291 ft 258 kts 103°
2026-05-03 21:50 49.93845 8.63447 3817 ft 257 kts 96°
2026-05-03 21:50 49.93774 8.66200 4053 ft 257 kts 95°
2026-05-03 21:50 49.93581 8.68970 4388 ft 260 kts 117°
2026-05-03 21:51 49.92564 8.71089 5141 ft 243 kts 150°
2026-05-03 21:51 49.91184 8.72553 5882 ft 242 kts 152°
2026-05-03 21:51 49.89790 8.73985 6546 ft 245 kts 151°
2026-05-03 21:51 49.88506 8.75657 7188 ft 254 kts 136°
2026-05-03 21:52 49.87493 8.77885 7883 ft 260 kts 125°
2026-05-03 21:52 49.86613 8.80321 8585 ft 263 kts 123°
2026-05-03 21:52 49.85743 8.82803 9278 ft 265 kts 124°
2026-05-03 21:52 49.84862 8.85289 9973 ft 266 kts 124°
2026-05-03 21:53 49.83964 8.87788 10604 ft 270 kts 124°
2026-05-03 21:53 49.83015 8.90399 10964 ft 285 kts 124°
2026-05-03 21:53 49.82011 8.93147 11023 ft 312 kts 124°
2026-05-03 21:53 49.80891 8.96220 11023 ft 339 kts 123°
2026-05-03 21:54 49.79694 8.99502 11026 ft 365 kts 123°
2026-05-03 21:54 49.78424 9.02992 11017 ft 375 kts 123°
2026-05-03 21:54 49.77187 9.06525 11013 ft 377 kts 119°
2026-05-03 21:54 49.76157 9.10214 11013 ft 379 kts 114°
2026-05-03 21:55 49.75322 9.14078 11030 ft 383 kts 112°
2026-05-03 21:55 49.74319 9.17971 11494 ft 388 kts 119°
2026-05-03 21:55 49.72958 9.21500 12353 ft 383 kts 129°
2026-05-03 21:55 49.71307 9.24661 13043 ft 385 kts 133°
2026-05-03 21:56 49.69536 9.27836 13648 ft 391 kts 134°
2026-05-03 21:56 49.67749 9.30986 14254 ft 396 kts 134°
2026-05-03 21:56 49.65934 9.34177 14882 ft 400 kts 134°
2026-05-03 21:56 49.64109 9.37397 15505 ft 404 kts 133°
2026-05-03 21:57 49.62435 9.40946 16111 ft 411 kts 124°
2026-05-03 21:57 49.61110 9.44825 16712 ft 417 kts 116°
2026-05-03 21:57 49.60105 9.49013 17300 ft 422 kts 111°
2026-05-03 21:57 49.59187 9.53365 17881 ft 426 kts 110°
2026-05-03 21:58 49.58290 9.57689 18431 ft 430 kts 110°
2026-05-03 21:58 49.57364 9.62108 19000 ft 433 kts 110°
2026-05-03 21:58 49.56429 9.66504 19564 ft 436 kts 111°
2026-05-03 21:58 49.55486 9.70883 20091 ft 439 kts 111°
2026-05-03 21:59 49.54523 9.75328 20626 ft 442 kts 111°
2026-05-03 21:59 49.53474 9.79742 21121 ft 444 kts 116°
2026-05-03 21:59 49.52089 9.83981 21647 ft 444 kts 123°
2026-05-03 21:59 49.50392 9.87904 22146 ft 443 kts 130°
2026-05-03 22:00 49.48475 9.91605 22667 ft 445 kts 132°
2026-05-03 22:00 49.46521 9.95266 23151 ft 448 kts 133°
2026-05-03 22:00 49.44536 9.98976 23619 ft 451 kts 132°
2026-05-03 22:00 49.42540 10.02724 24101 ft 454 kts 132°
2026-05-03 22:01 49.40558 10.06456 24580 ft 457 kts 132°
2026-05-03 22:01 49.38553 10.10240 25052 ft 459 kts 132°
2026-05-03 22:01 49.36542 10.14028 25507 ft 462 kts 132°
2026-05-03 22:01 49.34524 10.17823 25958 ft 464 kts 132°
2026-05-03 22:02 49.32460 10.21697 26393 ft 467 kts 132°
2026-05-03 22:02 49.30412 10.25538 26810 ft 470 kts 132°
2026-05-03 22:02 49.28359 10.29382 27213 ft 472 kts 132°
2026-05-03 22:02 49.26279 10.33268 27632 ft 474 kts 132°
2026-05-03 22:03 49.24160 10.37100 28038 ft 476 kts 134°
2026-05-03 22:03 49.21878 10.40815 28431 ft 477 kts 137°
2026-05-03 22:03 49.19524 10.44331 28887 ft 477 kts 138°
2026-05-03 22:03 49.17179 10.47821 29470 ft 475 kts 138°
2026-05-03 22:04 49.14833 10.51317 29972 ft 474 kts 138°
2026-05-03 22:04 49.12489 10.54798 30346 ft 476 kts 138°
2026-05-03 22:04 49.10110 10.58326 30668 ft 478 kts 138°
2026-05-03 22:04 49.07744 10.61828 30987 ft 480 kts 138°
2026-05-03 22:05 49.02941 10.68919 31051 ft 480 kts 139°
2026-05-03 22:05 48.98176 10.75922 31053 ft 480 kts 139°
2026-05-03 22:06 48.93368 10.82969 31050 ft 481 kts 139°
2026-05-03 22:06 48.88667 10.89847 31049 ft 482 kts 139°
2026-05-03 22:07 48.83841 10.96908 31044 ft 481 kts 139°
2026-05-03 22:07 48.79026 11.03925 31050 ft 482 kts 139°
2026-05-03 22:08 48.74188 11.10943 31047 ft 483 kts 139°
2026-05-03 22:08 48.69382 11.18014 31043 ft 484 kts 135°
2026-05-03 22:09 48.65294 11.26000 31045 ft 488 kts 124°
2026-05-03 22:10 48.61109 11.39988 31046 ft 493 kts 109°
2026-05-03 22:10 48.59094 11.49802 31043 ft 494 kts 109°
2026-05-03 22:11 48.57116 11.59566 31036 ft 494 kts 107°
2026-05-03 22:11 48.55557 11.69585 31031 ft 494 kts 104°
2026-05-03 22:12 48.54098 11.79656 31028 ft 494 kts 104°
2026-05-03 22:12 48.52621 11.89782 31021 ft 494 kts 104°
2026-05-03 22:13 48.51138 11.99860 31018 ft 494 kts 104°
2026-05-03 22:13 48.49649 12.09880 31015 ft 494 kts 104°
2026-05-03 22:14 48.48130 12.19973 31014 ft 495 kts 104°
2026-05-03 22:14 48.46600 12.30058 31013 ft 495 kts 104°
2026-05-03 22:15 48.45063 12.40154 31011 ft 495 kts 104°
2026-05-03 22:15 48.43527 12.50203 31009 ft 495 kts 104°
2026-05-03 22:16 48.41973 12.60277 31009 ft 495 kts 104°
2026-05-03 22:16 48.40650 12.70425 31012 ft 497 kts 99°
2026-05-03 22:17 48.40021 12.80706 31008 ft 498 kts 93°
2026-05-03 22:17 48.40107 12.91081 31006 ft 498 kts 88°
2026-05-03 22:18 48.40452 13.01448 31012 ft 498 kts 88°
2026-05-03 22:18 48.40777 13.11855 31015 ft 498 kts 88°
2026-05-03 22:19 48.40967 13.22221 31014 ft 498 kts 92°
2026-05-03 22:19 48.40307 13.32518 31011 ft 496 kts 100°
2026-05-03 22:20 48.38660 13.42601 31012 ft 495 kts 108°
2026-05-03 22:20 48.36429 13.52370 31008 ft 495 kts 109°
2026-05-03 22:21 48.34164 13.62117 31006 ft 496 kts 109°
2026-05-03 22:21 48.31907 13.71850 31001 ft 496 kts 110°
2026-05-03 22:22 48.29650 13.81577 30989 ft 496 kts 110°
2026-05-03 22:22 48.27371 13.91366 30972 ft 497 kts 110°
2026-05-03 22:23 48.25088 14.01130 30973 ft 497 kts 110°
2026-05-03 22:23 48.22787 14.10923 30969 ft 497 kts 109°
2026-05-03 22:24 48.20493 14.20648 30971 ft 498 kts 109°
2026-05-03 22:24 48.18185 14.30385 30970 ft 498 kts 109°
2026-05-03 22:25 48.15861 14.40146 30967 ft 498 kts 109°
2026-05-03 22:25 48.13547 14.49826 30972 ft 497 kts 109°
2026-05-03 22:26 48.11202 14.59589 30976 ft 497 kts 109°
2026-05-03 22:26 48.08882 14.69203 30979 ft 498 kts 110°
2026-05-03 22:27 48.06519 14.78958 30981 ft 498 kts 109°
2026-05-03 22:27 48.04156 14.88665 30981 ft 498 kts 109°
2026-05-03 22:28 48.01805 14.98291 30982 ft 498 kts 109°
2026-05-03 22:28 47.99433 15.07953 30996 ft 496 kts 109°
2026-05-03 22:29 47.97043 15.17647 31006 ft 497 kts 109°
2026-05-03 22:29 47.94656 15.27284 31039 ft 497 kts 109°
2026-05-03 22:30 47.92254 15.36947 31054 ft 498 kts 109°
2026-05-03 22:30 47.89852 15.46568 31051 ft 498 kts 109°
2026-05-03 22:31 47.87428 15.56227 31051 ft 497 kts 109°
2026-05-03 22:31 47.85007 15.65840 31045 ft 497 kts 109°
2026-05-03 22:32 47.82580 15.75435 31040 ft 497 kts 109°
2026-05-03 22:32 47.80139 15.85045 31037 ft 497 kts 109°
2026-05-03 22:33 47.77708 15.94577 31052 ft 497 kts 109°
2026-05-03 22:33 47.75280 16.04055 31053 ft 497 kts 109°
2026-05-03 22:34 47.72828 16.13592 31055 ft 496 kts 109°
2026-05-03 22:34 47.70372 16.23103 31051 ft 496 kts 109°
2026-05-03 22:35 47.67891 16.32671 31055 ft 495 kts 109°
2026-05-03 22:35 47.65431 16.42123 31047 ft 495 kts 109°
2026-05-03 22:36 47.62948 16.51623 31058 ft 495 kts 109°
2026-05-03 22:36 47.60456 16.61125 31063 ft 495 kts 109°
2026-05-03 22:37 47.57966 16.70583 31063 ft 495 kts 110°
2026-05-03 22:37 47.55434 16.80051 31075 ft 494 kts 110°
2026-05-03 22:38 47.52840 16.89473 31083 ft 495 kts 110°
2026-05-03 22:38 47.50248 16.98862 31086 ft 495 kts 110°
2026-05-03 22:39 47.47652 17.08252 31093 ft 494 kts 110°
2026-05-03 22:39 47.45051 17.17630 31097 ft 493 kts 110°
2026-05-03 22:40 47.42471 17.26907 31101 ft 493 kts 110°
2026-05-03 22:40 47.39863 17.36243 31102 ft 493 kts 110°
2026-05-03 22:41 47.37236 17.45614 31106 ft 493 kts 110°
2026-05-03 22:41 47.34628 17.54878 31108 ft 492 kts 110°
2026-05-03 22:42 47.32011 17.64143 31110 ft 492 kts 109°
2026-05-03 22:42 47.29365 17.73471 31113 ft 492 kts 110°
2026-05-03 22:43 47.26742 17.82684 31114 ft 491 kts 110°
2026-05-03 22:43 47.24094 17.91947 31122 ft 491 kts 110°
2026-05-03 22:44 47.21444 18.01183 31123 ft 490 kts 110°
2026-05-03 22:44 47.18803 18.10350 31134 ft 490 kts 110°
2026-05-03 22:45 47.16147 18.19539 31123 ft 490 kts 110°
2026-05-03 22:45 47.13485 18.28716 31127 ft 489 kts 110°
2026-05-03 22:46 47.10824 18.37852 31130 ft 489 kts 110°
2026-05-03 22:46 47.08156 18.46976 31132 ft 488 kts 110°
2026-05-03 22:47 47.05479 18.56103 31136 ft 488 kts 110°
2026-05-03 22:47 47.02797 18.65211 31137 ft 487 kts 110°
2026-05-03 22:48 47.00118 18.74276 31140 ft 487 kts 110°
2026-05-03 22:48 46.97425 18.83356 31139 ft 487 kts 110°
2026-05-03 22:49 46.94711 18.92472 31144 ft 487 kts 110°
2026-05-03 22:49 46.92014 19.01500 31148 ft 487 kts 110°
2026-05-03 22:50 46.89291 19.10582 31146 ft 487 kts 110°
2026-05-03 22:50 46.86594 19.19547 31143 ft 486 kts 110°
2026-05-03 22:51 46.83876 19.28561 31148 ft 486 kts 110°
2026-05-03 22:51 46.81147 19.37569 31145 ft 486 kts 110°
2026-05-03 22:52 46.78395 19.46540 31148 ft 485 kts 111°
2026-05-03 22:52 46.75630 19.55472 31149 ft 485 kts 110°
2026-05-03 22:53 46.72861 19.64399 31152 ft 485 kts 110°
2026-05-03 22:53 46.70090 19.73315 31149 ft 485 kts 111°
2026-05-03 22:54 46.67303 19.82253 31152 ft 485 kts 111°
2026-05-03 22:54 46.64513 19.91172 31150 ft 485 kts 111°
2026-05-03 22:55 46.61726 20.00051 31146 ft 485 kts 111°
2026-05-03 22:55 46.58931 20.08923 31142 ft 484 kts 111°
2026-05-03 22:56 46.56113 20.17835 31141 ft 484 kts 111°
2026-05-03 22:56 46.53319 20.26637 31141 ft 483 kts 111°
2026-05-03 22:57 46.50497 20.35504 31141 ft 484 kts 111°
2026-05-03 22:57 46.47671 20.44345 31141 ft 483 kts 111°
2026-05-03 22:58 46.44854 20.53134 31141 ft 483 kts 111°
2026-05-03 22:58 46.42019 20.61952 31140 ft 483 kts 111°
2026-05-03 22:59 46.39202 20.70682 31141 ft 483 kts 111°
2026-05-03 22:59 46.36356 20.79477 31141 ft 482 kts 111°
2026-05-03 23:00 46.33508 20.88251 31140 ft 482 kts 111°
2026-05-03 23:00 46.30656 20.97005 31141 ft 482 kts 111°
2026-05-03 23:01 46.27807 21.05719 31142 ft 482 kts 111°
2026-05-03 23:01 46.25084 21.14528 31145 ft 480 kts 108°
2026-05-03 23:02 46.22529 21.23417 31147 ft 479 kts 108°
2026-05-03 23:02 46.19994 21.32231 31149 ft 478 kts 108°
2026-05-03 23:03 46.17439 21.41086 31150 ft 478 kts 108°
2026-05-03 23:03 46.14885 21.49912 31150 ft 478 kts 108°
2026-05-03 23:04 46.12326 21.58725 31148 ft 477 kts 108°
2026-05-03 23:04 46.09760 21.67527 31149 ft 477 kts 108°
2026-05-03 23:05 46.07198 21.76285 31149 ft 477 kts 108°
2026-05-03 23:05 46.04626 21.85038 31148 ft 476 kts 108°
2026-05-03 23:06 46.02040 21.93817 31149 ft 476 kts 108°
2026-05-03 23:06 45.99460 22.02540 31152 ft 474 kts 108°
2026-05-03 23:07 45.96876 22.11256 31154 ft 475 kts 108°
2026-05-03 23:07 45.94292 22.19933 31155 ft 475 kts 108°
2026-05-03 23:08 45.91689 22.28642 31156 ft 474 kts 108°
2026-05-03 23:08 45.89100 22.37277 31151 ft 475 kts 108°
2026-05-03 23:09 45.86500 22.45916 31159 ft 474 kts 108°
2026-05-03 23:09 45.83890 22.54562 31163 ft 473 kts 108°
2026-05-03 23:10 45.81271 22.63210 31163 ft 473 kts 108°
2026-05-03 23:10 45.78648 22.71844 31163 ft 474 kts 108°
2026-05-03 23:11 45.76010 22.80487 31162 ft 473 kts 108°
2026-05-03 23:11 45.73383 22.89070 31159 ft 473 kts 108°
2026-05-03 23:12 45.70751 22.97637 31158 ft 472 kts 108°
2026-05-03 23:12 45.68108 23.06218 31156 ft 472 kts 108°
2026-05-03 23:13 45.65472 23.14747 31154 ft 472 kts 108°
2026-05-03 23:13 45.62806 23.23341 31154 ft 471 kts 108°
2026-05-03 23:14 45.60167 23.31813 31158 ft 469 kts 107°
2026-05-03 23:14 45.57509 23.40328 31160 ft 469 kts 107°
2026-05-03 23:15 45.54855 23.48801 31157 ft 469 kts 107°
2026-05-03 23:15 45.52203 23.57236 31150 ft 468 kts 108°
2026-05-03 23:16 45.49554 23.65637 31147 ft 469 kts 108°
2026-05-03 23:16 45.46878 23.74096 31142 ft 469 kts 108°
2026-05-03 23:17 45.44203 23.82517 31137 ft 467 kts 108°
2026-05-03 23:17 45.41536 23.90892 31133 ft 466 kts 108°
2026-05-03 23:18 45.38863 23.99256 31132 ft 467 kts 108°
2026-05-03 23:18 45.36173 24.07651 31133 ft 466 kts 108°
2026-05-03 23:19 45.33484 24.16011 31134 ft 466 kts 107°
2026-05-03 23:19 45.30802 24.24323 31135 ft 464 kts 108°
2026-05-03 23:20 45.28093 24.32694 31132 ft 464 kts 107°
2026-05-03 23:20 45.25407 24.40968 31132 ft 463 kts 108°
2026-05-03 23:21 45.22722 24.49210 31129 ft 464 kts 108°
2026-05-03 23:21 45.20000 24.57544 31130 ft 463 kts 108°
2026-05-03 23:22 45.15959 24.69861 31128 ft 465 kts 108°
2026-05-03 23:22 45.13249 24.78088 31126 ft 464 kts 108°
2026-05-03 23:23 45.10514 24.86368 31130 ft 464 kts 108°
2026-05-03 23:23 45.07793 24.94583 31129 ft 463 kts 108°
2026-05-03 23:24 45.05065 25.02790 31132 ft 465 kts 108°
2026-05-03 23:24 45.02309 25.11050 31131 ft 464 kts 108°
2026-05-03 23:25 44.99553 25.19298 31134 ft 463 kts 109°
2026-05-03 23:25 44.96817 25.27461 31132 ft 464 kts 109°
2026-05-03 23:26 44.94053 25.35678 31126 ft 464 kts 109°
2026-05-03 23:26 44.91282 25.43877 31126 ft 465 kts 110°
2026-05-03 23:27 44.88499 25.52096 31123 ft 466 kts 110°
2026-05-03 23:27 44.85703 25.60325 31124 ft 466 kts 110°
2026-05-03 23:28 44.82905 25.68537 31128 ft 466 kts 111°
2026-05-03 23:28 44.80103 25.76731 31126 ft 466 kts 111°
2026-05-03 23:29 44.77290 25.84931 31132 ft 467 kts 111°
2026-05-03 23:29 44.74463 25.93153 31126 ft 467 kts 112°
2026-05-03 23:30 44.71637 26.01343 31133 ft 467 kts 112°
2026-05-03 23:30 44.68797 26.09557 31129 ft 466 kts 112°
2026-05-03 23:31 44.65959 26.17733 31129 ft 465 kts 113°
2026-05-03 23:31 44.63131 26.25858 31135 ft 465 kts 113°
2026-05-03 23:32 44.60313 26.33926 31131 ft 463 kts 114°
2026-05-03 23:32 44.57475 26.42029 31131 ft 463 kts 114°
2026-05-03 23:33 44.54652 26.50062 31132 ft 463 kts 114°
2026-05-03 23:33 44.51797 26.58170 31128 ft 462 kts 114°
2026-05-03 23:34 44.48973 26.66167 31120 ft 462 kts 115°
2026-05-03 23:34 44.46116 26.74227 31112 ft 462 kts 116°
2026-05-03 23:35 44.43253 26.82278 31106 ft 462 kts 116°
2026-05-03 23:35 44.40393 26.90293 31101 ft 463 kts 116°
2026-05-03 23:36 44.37521 26.98325 31106 ft 465 kts 116°
2026-05-03 23:36 44.34632 27.06383 31119 ft 464 kts 117°
2026-05-03 23:37 44.31737 27.14427 31117 ft 464 kts 117°
2026-05-03 23:37 44.28859 27.22412 31118 ft 462 kts 117°
2026-05-03 23:38 44.25988 27.30350 31122 ft 459 kts 117°
2026-05-03 23:38 44.23112 27.38280 31116 ft 457 kts 117°
2026-05-03 23:39 44.20264 27.46104 31115 ft 456 kts 118°
2026-05-03 23:39 44.17395 27.53968 31111 ft 455 kts 118°
2026-05-03 23:40 44.14532 27.61791 31101 ft 454 kts 118°
2026-05-03 23:40 44.11658 27.69622 31106 ft 453 kts 119°
2026-05-03 23:41 44.08810 27.77365 31110 ft 453 kts 120°
2026-05-03 23:41 44.05955 27.85102 31087 ft 450 kts 120°
2026-05-03 23:42 44.03086 27.92859 31099 ft 450 kts 120°
2026-05-03 23:42 44.00244 28.00515 31091 ft 449 kts 120°
2026-05-03 23:43 43.97382 28.08200 31092 ft 448 kts 120°
2026-05-03 23:43 43.94529 28.15846 31073 ft 447 kts 120°
2026-05-03 23:44 43.91673 28.23475 31068 ft 448 kts 120°
2026-05-03 23:44 43.88813 28.31099 31068 ft 448 kts 120°
2026-05-03 23:45 43.85945 28.38722 31066 ft 448 kts 120°
2026-05-03 23:45 43.83073 28.46341 31062 ft 448 kts 120°
2026-05-03 23:46 43.80197 28.53950 31065 ft 447 kts 120°
2026-05-03 23:46 43.77322 28.61539 31056 ft 447 kts 120°
2026-05-03 23:47 43.74439 28.69133 31062 ft 448 kts 120°
2026-05-03 23:47 43.71522 28.76746 31052 ft 447 kts 121°
2026-05-03 23:48 43.68261 28.84020 31049 ft 447 kts 126°
2026-05-03 23:48 43.64647 28.90958 31044 ft 446 kts 127°
2026-05-03 23:49 43.61030 28.97869 31041 ft 447 kts 127°
2026-05-03 23:49 43.57403 29.04778 31034 ft 446 kts 127°
2026-05-03 23:50 43.54367 29.10547 31028 ft 447 kts 127°
2026-05-03 23:50 43.50112 29.18616 31018 ft 446 kts 127°
2026-05-03 23:51 43.46493 29.25463 31023 ft 446 kts 127°
2026-05-03 23:51 43.44671 29.28903 31124 ft 450 kts 127°
2026-05-03 23:51 43.42871 29.32297 31532 ft 448 kts 127°
2026-05-03 23:52 43.41125 29.35584 32023 ft 444 kts 127°
2026-05-03 23:52 43.39279 29.39061 32502 ft 441 kts 127°
2026-05-03 23:52 43.37465 29.42472 32890 ft 440 kts 127°
2026-05-03 23:52 43.35670 29.45841 33271 ft 438 kts 127°
2026-05-03 23:53 43.33883 29.49189 33657 ft 436 kts 127°
2026-05-03 23:53 43.32094 29.52542 34043 ft 435 kts 127°
2026-05-03 23:53 43.30331 29.55842 34389 ft 433 kts 128°
2026-05-03 23:53 43.28564 29.59144 34716 ft 431 kts 127°
2026-05-03 23:54 43.26777 29.62474 34949 ft 432 kts 127°
2026-05-03 23:54 43.24992 29.65799 34996 ft 432 kts 128°
2026-05-03 23:54 43.21455 29.72385 35000 ft 431 kts 128°
2026-05-03 23:55 43.17924 29.78949 35000 ft 429 kts 128°
2026-05-03 23:55 43.14394 29.85485 34988 ft 427 kts 128°
2026-05-03 23:56 43.10872 29.92003 34984 ft 427 kts 128°
2026-05-03 23:56 43.07339 29.98520 34979 ft 425 kts 128°
2026-05-03 23:57 43.03848 30.04943 34972 ft 423 kts 127°
2026-05-03 23:57 43.00349 30.11376 34967 ft 421 kts 127°
2026-05-03 23:58 42.96858 30.17779 34970 ft 421 kts 127°
2026-05-03 23:58 42.93383 30.24135 34954 ft 421 kts 127°
2026-05-03 23:59 42.89900 30.30498 34961 ft 421 kts 127°
2026-05-03 23:59 42.86416 30.36851 34954 ft 419 kts 127°
2026-05-04 00:00 42.82935 30.43185 34952 ft 419 kts 127°
2026-05-04 00:00 42.79470 30.49539 34944 ft 419 kts 126°
2026-05-04 00:01 42.76334 30.56227 34943 ft 420 kts 121°
2026-05-04 00:01 42.73674 30.63276 34945 ft 421 kts 116°
2026-05-04 00:02 42.71507 30.70649 34936 ft 421 kts 111°
2026-05-04 00:02 42.69793 30.78221 34948 ft 421 kts 109°
2026-05-04 00:03 42.68134 30.85768 34926 ft 418 kts 109°
2026-05-04 00:03 42.66472 30.93331 34943 ft 417 kts 109°
2026-05-04 00:04 42.64813 31.00850 34923 ft 417 kts 109°
2026-05-04 00:04 42.63160 31.08334 34923 ft 416 kts 109°
2026-05-04 00:05 42.61495 31.15848 34911 ft 417 kts 109°
2026-05-04 00:05 42.59819 31.23385 34938 ft 418 kts 109°
2026-05-04 00:06 42.58143 31.30881 34921 ft 417 kts 109°
2026-05-04 00:06 42.56476 31.38337 34911 ft 416 kts 109°
2026-05-04 00:07 42.54799 31.45797 34897 ft 416 kts 109°
2026-05-04 00:07 42.53111 31.53286 34906 ft 416 kts 108°
2026-05-04 00:08 42.51422 31.60749 34892 ft 416 kts 109°
2026-05-04 00:08 42.49722 31.68235 34891 ft 417 kts 109°
2026-05-04 00:09 42.48029 31.75664 34874 ft 415 kts 109°
2026-05-04 00:09 42.46320 31.83135 34874 ft 416 kts 109°
2026-05-04 00:10 42.44638 31.90466 34860 ft 416 kts 110°
2026-05-04 00:10 42.42918 31.97943 34877 ft 416 kts 109°
2026-05-04 00:11 42.41205 32.05366 34833 ft 415 kts 109°
2026-05-04 00:11 42.39491 32.12748 34867 ft 415 kts 109°
2026-05-04 00:12 42.37767 32.20169 34854 ft 415 kts 109°
2026-05-04 00:12 42.36034 32.27597 34850 ft 415 kts 109°
2026-05-04 00:13 42.34292 32.35042 34814 ft 416 kts 109°
2026-05-04 00:13 42.32548 32.42475 34850 ft 415 kts 109°
2026-05-04 00:14 42.30807 32.49867 34798 ft 416 kts 109°
2026-05-04 00:14 42.29057 32.57273 34864 ft 417 kts 109°
2026-05-04 00:15 42.27298 32.64686 34782 ft 417 kts 108°
2026-05-04 00:15 42.25531 32.72113 34813 ft 417 kts 109°
2026-05-04 00:16 42.23753 32.79562 34808 ft 418 kts 109°
2026-05-04 00:16 42.21975 32.86998 34785 ft 418 kts 109°
2026-05-04 00:17 42.20193 32.94415 34805 ft 418 kts 109°
2026-05-04 00:17 42.18391 33.01896 34807 ft 418 kts 109°
2026-05-04 00:18 42.16607 33.09271 34827 ft 418 kts 109°
2026-05-04 00:18 42.14805 33.16710 34819 ft 418 kts 109°
2026-05-04 00:19 42.12993 33.24149 34851 ft 419 kts 109°
2026-05-04 00:19 42.11187 33.31547 34790 ft 419 kts 109°
2026-05-04 00:20 42.09366 33.38973 34801 ft 420 kts 109°
2026-05-04 00:20 42.07542 33.46404 34800 ft 420 kts 109°
2026-05-04 00:21 42.05708 33.53842 34792 ft 420 kts 109°
2026-05-04 00:21 42.03866 33.61292 34807 ft 421 kts 109°
2026-05-04 00:22 42.02035 33.68674 34803 ft 421 kts 110°
2026-05-04 00:22 42.00171 33.76158 34811 ft 422 kts 110°
2026-05-04 00:23 41.98322 33.83567 34867 ft 422 kts 109°
2026-05-04 00:23 41.96449 33.91044 34803 ft 422 kts 110°
2026-05-04 00:24 41.94587 33.98455 34787 ft 423 kts 110°
2026-05-04 00:24 41.92699 34.05948 34799 ft 424 kts 110°
2026-05-04 00:25 41.90812 34.13413 34780 ft 423 kts 110°
2026-05-04 00:25 41.88950 34.20756 34778 ft 424 kts 110°
2026-05-04 00:26 41.87051 34.28224 34770 ft 425 kts 110°
2026-05-04 00:26 41.85137 34.35712 34740 ft 426 kts 110°
2026-05-04 00:27 41.83213 34.43229 34757 ft 426 kts 110°
2026-05-04 00:27 41.81297 34.50691 34756 ft 426 kts 110°
2026-05-04 00:28 41.79365 34.58198 34760 ft 427 kts 110°
2026-05-04 00:28 41.77423 34.65708 34714 ft 429 kts 110°
2026-05-04 00:29 41.75487 34.73178 34723 ft 429 kts 111°
2026-05-04 00:29 41.73527 34.80719 34720 ft 430 kts 111°
2026-05-04 00:30 41.71565 34.88232 34746 ft 431 kts 111°
2026-05-04 00:30 41.69601 34.95738 34735 ft 430 kts 111°
2026-05-04 00:31 41.67623 35.03276 34717 ft 432 kts 111°
2026-05-04 00:31 41.65636 35.10822 34748 ft 433 kts 111°
2026-05-04 00:32 41.63648 35.18353 34728 ft 434 kts 111°
2026-05-04 00:32 41.61636 35.25948 34739 ft 436 kts 111°
2026-05-04 00:33 41.58598 35.37367 34752 ft 436 kts 111°
2026-05-04 00:34 41.56570 35.44962 34760 ft 438 kts 111°
2026-05-04 00:34 41.54520 35.52626 34759 ft 439 kts 111°
2026-05-04 00:35 41.52472 35.60252 34739 ft 439 kts 111°
2026-05-04 00:35 41.50412 35.67889 34774 ft 440 kts 112°
2026-05-04 00:36 41.48339 35.75559 34756 ft 442 kts 112°
2026-05-04 00:36 41.46263 35.83218 34761 ft 442 kts 112°
2026-05-04 00:37 41.44160 35.90954 34758 ft 443 kts 112°
2026-05-04 00:37 41.42065 35.98631 34784 ft 445 kts 112°
2026-05-04 00:38 41.39970 36.06287 34777 ft 444 kts 112°
2026-05-04 00:38 41.37852 36.14006 34776 ft 445 kts 112°
2026-05-04 00:39 41.35744 36.21671 34780 ft 446 kts 112°
2026-05-04 00:39 41.33612 36.29402 34797 ft 447 kts 112°
2026-05-04 00:40 41.31473 36.37131 34793 ft 447 kts 112°
2026-05-04 00:40 41.29449 36.44920 34798 ft 449 kts 108°
2026-05-04 00:41 41.28225 36.53038 34798 ft 453 kts 100°
2026-05-04 00:41 41.27957 36.61397 34797 ft 459 kts 91°
2026-05-04 00:42 41.28679 36.69814 34810 ft 463 kts 84°
2026-05-04 00:42 41.29903 36.78170 34804 ft 464 kts 83°
2026-05-04 00:43 41.31140 36.86496 34815 ft 463 kts 83°
2026-05-04 00:43 41.32368 36.94869 34814 ft 464 kts 83°
2026-05-04 00:44 41.33575 37.03192 34804 ft 464 kts 83°
2026-05-04 00:44 41.34774 37.11499 34773 ft 463 kts 84°
2026-05-04 00:45 41.35978 37.19893 34784 ft 463 kts 83°
2026-05-04 00:45 41.37174 37.28280 34788 ft 464 kts 84°
2026-05-04 00:46 41.38367 37.36706 34773 ft 464 kts 84°
2026-05-04 00:46 41.39556 37.45133 34786 ft 465 kts 84°
2026-05-04 00:47 41.40735 37.53543 34769 ft 466 kts 84°
2026-05-04 00:47 41.41917 37.62017 34789 ft 466 kts 84°
2026-05-04 00:48 41.43081 37.70419 34780 ft 465 kts 84°
2026-05-04 00:48 41.44248 37.78878 34775 ft 465 kts 85°
2026-05-04 00:49 41.45406 37.87333 34778 ft 467 kts 85°
2026-05-04 00:49 41.46559 37.95798 34780 ft 467 kts 85°
2026-05-04 00:50 41.47707 38.04275 34779 ft 466 kts 84°
2026-05-04 00:50 41.48848 38.12740 34788 ft 466 kts 84°
2026-05-04 00:51 41.49985 38.21224 34786 ft 466 kts 85°
2026-05-04 00:51 41.51118 38.29719 34787 ft 466 kts 85°
2026-05-04 00:52 41.52238 38.38198 34787 ft 467 kts 85°
2026-05-04 00:52 41.53354 38.46671 34792 ft 467 kts 85°
2026-05-04 00:53 41.54466 38.55177 34773 ft 467 kts 85°
2026-05-04 00:53 41.55572 38.63672 34770 ft 467 kts 85°
2026-05-04 00:54 41.56677 38.72223 34777 ft 467 kts 85°
2026-05-04 00:54 41.57760 38.80665 34781 ft 466 kts 85°
2026-05-04 00:55 41.58847 38.89168 34773 ft 466 kts 85°
2026-05-04 00:55 41.59929 38.97694 34779 ft 468 kts 85°
2026-05-04 00:56 41.61008 39.06249 34767 ft 467 kts 86°
2026-05-04 00:56 41.62077 39.14774 34775 ft 468 kts 86°
2026-05-04 00:57 41.63141 39.23300 34772 ft 467 kts 86°
2026-05-04 00:57 41.64192 39.31799 34763 ft 466 kts 86°
2026-05-04 00:58 41.65238 39.40321 34770 ft 466 kts 85°
2026-05-04 00:58 41.66280 39.48843 34758 ft 467 kts 86°
2026-05-04 00:59 41.67318 39.57383 34764 ft 467 kts 85°
2026-05-04 00:59 41.68341 39.65856 34771 ft 467 kts 86°
2026-05-04 01:00 41.69371 39.74440 34781 ft 468 kts 86°
2026-05-04 01:00 41.70392 39.83002 34775 ft 467 kts 86°
2026-05-04 01:01 41.71399 39.91503 34778 ft 467 kts 86°
2026-05-04 01:01 41.72407 40.00079 34784 ft 468 kts 86°
2026-05-04 01:02 41.73406 40.08633 34770 ft 467 kts 86°
2026-05-04 01:02 41.74398 40.17199 34759 ft 467 kts 86°
2026-05-04 01:03 41.75387 40.25784 34754 ft 467 kts 86°
2026-05-04 01:03 41.76364 40.34313 34747 ft 468 kts 86°
2026-05-04 01:04 41.77342 40.42896 34749 ft 469 kts 86°
2026-05-04 01:04 41.78316 40.51486 34746 ft 468 kts 86°
2026-05-04 01:05 41.79284 40.60131 34744 ft 468 kts 86°
2026-05-04 01:05 41.80544 40.68665 34744 ft 472 kts 81°
2026-05-04 01:06 41.82279 40.77139 34740 ft 473 kts 79°
2026-05-04 01:06 41.84059 40.85601 34747 ft 475 kts 79°
2026-05-04 01:07 41.85838 40.94103 34751 ft 475 kts 79°
2026-05-04 01:07 41.87596 41.02576 34750 ft 474 kts 79°
2026-05-04 01:08 41.89350 41.11067 34752 ft 474 kts 79°
2026-05-04 01:08 41.91097 41.19558 34749 ft 475 kts 79°
2026-05-04 01:09 41.92849 41.28114 34762 ft 476 kts 79°
2026-05-04 01:09 41.94594 41.36669 34766 ft 477 kts 79°
2026-05-04 01:10 41.96322 41.45176 34752 ft 475 kts 79°
2026-05-04 01:10 41.98047 41.53711 34757 ft 476 kts 79°
2026-05-04 01:11 41.99771 41.62275 34761 ft 476 kts 79°
2026-05-04 01:11 42.01493 41.70857 34758 ft 475 kts 79°
2026-05-04 01:12 42.03194 41.79375 34771 ft 476 kts 80°
2026-05-04 01:12 42.04901 41.87963 34778 ft 477 kts 79°
2026-05-04 01:13 42.06598 41.96537 34773 ft 478 kts 80°
2026-05-04 01:13 42.08295 42.05154 34760 ft 477 kts 79°
2026-05-04 01:14 42.09987 42.13752 34765 ft 478 kts 79°
2026-05-04 01:14 42.11679 42.22412 34769 ft 479 kts 80°
2026-05-04 01:15 42.13364 42.31078 34753 ft 480 kts 80°
2026-05-04 01:15 42.15022 42.39639 34757 ft 480 kts 80°
2026-05-04 01:16 42.16702 42.48347 34774 ft 483 kts 80°
2026-05-04 01:16 42.17539 42.52714 34983 ft 485 kts 79°
2026-05-04 01:16 42.18376 42.57077 35286 ft 484 kts 80°
2026-05-04 01:16 42.19223 42.61491 35515 ft 485 kts 80°
2026-05-04 01:17 42.20051 42.65837 35701 ft 487 kts 81°
2026-05-04 01:17 42.20894 42.70263 35874 ft 488 kts 80°
2026-05-04 01:17 42.21733 42.74685 36054 ft 489 kts 80°
2026-05-04 01:17 42.22574 42.79114 36242 ft 491 kts 80°
2026-05-04 01:18 42.23425 42.83613 36416 ft 494 kts 80°
2026-05-04 01:18 42.24266 42.88063 36633 ft 495 kts 80°
2026-05-04 01:18 42.25108 42.92541 36830 ft 496 kts 81°
2026-05-04 01:18 42.25769 42.97123 36988 ft 494 kts 87°
2026-05-04 01:19 42.26064 43.01693 37163 ft 491 kts 93°
2026-05-04 01:19 42.26002 43.06239 37377 ft 487 kts 99°
2026-05-04 01:19 42.25592 43.10771 37569 ft 484 kts 105°
2026-05-04 01:19 42.24860 43.15123 37721 ft 481 kts 111°
2026-05-04 01:20 42.23794 43.19400 37874 ft 478 kts 117°
2026-05-04 01:20 42.22502 43.23503 38034 ft 477 kts 118°
2026-05-04 01:20 42.21168 43.27568 38185 ft 478 kts 119°
2026-05-04 01:20 42.19819 43.31667 38357 ft 479 kts 119°
2026-05-04 01:21 42.18479 43.35762 38516 ft 480 kts 118°
2026-05-04 01:21 42.17139 43.39874 38678 ft 480 kts 119°
2026-05-04 01:21 42.15816 43.43942 38805 ft 481 kts 119°
2026-05-04 01:22 42.13124 43.52229 38851 ft 484 kts 118°
2026-05-04 01:22 42.10416 43.60443 38869 ft 483 kts 121°
2026-05-04 01:23 42.07259 43.68277 38890 ft 476 kts 128°
2026-05-04 01:23 42.03622 43.75666 38846 ft 475 kts 130°
2026-05-04 01:24 41.99943 43.82980 38883 ft 477 kts 130°
2026-05-04 01:24 41.96225 43.90380 38898 ft 477 kts 130°
2026-05-04 01:25 41.92612 43.97560 38906 ft 477 kts 130°
2026-05-04 01:25 41.88860 44.05000 38937 ft 479 kts 129°
2026-05-04 01:26 41.85152 44.12336 38940 ft 479 kts 129°
2026-05-04 01:26 41.81408 44.19726 38963 ft 479 kts 129°
2026-05-04 01:27 41.77681 44.27072 38967 ft 480 kts 129°
2026-05-04 01:27 41.73925 44.34452 38968 ft 480 kts 129°
2026-05-04 01:28 41.70171 44.41811 38962 ft 481 kts 129°
2026-05-04 01:28 41.66405 44.49169 38966 ft 481 kts 129°
2026-05-04 01:29 41.62618 44.56555 38970 ft 482 kts 129°
2026-05-04 01:29 41.58849 44.63893 38973 ft 482 kts 129°
2026-05-04 01:30 41.55078 44.71214 38970 ft 481 kts 130°
2026-05-04 01:30 41.51298 44.78542 38965 ft 481 kts 130°
2026-05-04 01:31 41.47506 44.85870 38967 ft 483 kts 130°
2026-05-04 01:31 41.43693 44.93229 38972 ft 483 kts 130°
2026-05-04 01:32 41.39902 45.00577 38981 ft 485 kts 128°
2026-05-04 01:32 41.36485 45.08339 38979 ft 490 kts 122°
2026-05-04 01:33 41.33683 45.16627 38983 ft 496 kts 115°
2026-05-04 01:33 41.31422 45.25280 38980 ft 498 kts 113°
2026-05-04 01:34 41.29218 45.33981 38975 ft 498 kts 113°
2026-05-04 01:34 41.27003 45.42619 38980 ft 497 kts 113°
2026-05-04 01:35 41.24755 45.51321 38970 ft 498 kts 113°
2026-05-04 01:35 41.22509 45.59991 38969 ft 498 kts 113°
2026-05-04 01:36 41.20241 45.68669 38970 ft 499 kts 114°
2026-05-04 01:36 41.17962 45.77294 38966 ft 499 kts 114°
2026-05-04 01:37 41.15673 45.85954 38969 ft 500 kts 114°
2026-05-04 01:37 41.13375 45.94625 38971 ft 499 kts 114°
2026-05-04 01:38 41.11077 46.03288 38960 ft 499 kts 114°
2026-05-04 01:38 41.08781 46.11906 38957 ft 500 kts 114°
2026-05-04 01:39 41.06460 46.20593 38958 ft 501 kts 114°
2026-05-04 01:39 41.04131 46.29265 38959 ft 501 kts 114°
2026-05-04 01:40 41.01809 46.37931 38977 ft 502 kts 114°
2026-05-04 01:40 40.99500 46.46560 38968 ft 502 kts 114°
2026-05-04 01:41 40.97155 46.55296 38973 ft 503 kts 114°
2026-05-04 01:41 40.94820 46.63969 38973 ft 503 kts 114°
2026-05-04 01:42 40.92492 46.72600 38974 ft 503 kts 114°
2026-05-04 01:42 40.90126 46.81326 38977 ft 505 kts 114°
2026-05-04 01:43 40.87764 46.89962 38978 ft 506 kts 115°
2026-05-04 01:43 40.85369 46.98682 38977 ft 506 kts 115°
2026-05-04 01:44 40.82989 47.07341 38980 ft 506 kts 114°
2026-05-04 01:44 40.80587 47.16034 38983 ft 506 kts 115°
2026-05-04 01:45 40.78160 47.24734 38984 ft 506 kts 115°
2026-05-04 01:45 40.74515 47.37731 38988 ft 506 kts 115°
2026-05-04 01:46 40.72081 47.46386 38990 ft 506 kts 114°
2026-05-04 01:46 40.69625 47.55113 38989 ft 507 kts 114°
2026-05-04 01:47 40.67185 47.63759 38982 ft 507 kts 114°
2026-05-04 01:47 40.64747 47.72396 38983 ft 506 kts 115°
2026-05-04 01:48 40.62275 47.81091 38989 ft 507 kts 115°
2026-05-04 01:48 40.60169 47.89932 38982 ft 512 kts 107°
2026-05-04 01:49 40.58911 47.99136 38985 ft 517 kts 99°
2026-05-04 01:49 40.58575 48.08544 38979 ft 519 kts 91°
2026-05-04 01:50 40.58906 48.17977 38986 ft 520 kts 89°
2026-05-04 01:50 40.59201 48.27398 38979 ft 521 kts 90°
2026-05-04 01:51 40.59439 48.36882 38979 ft 521 kts 90°
2026-05-04 01:51 40.59671 48.46376 38977 ft 521 kts 90°
2026-05-04 01:52 40.59895 48.55781 38980 ft 522 kts 90°
2026-05-04 01:52 40.60115 48.65252 38980 ft 522 kts 90°
2026-05-04 01:53 40.60329 48.74776 38975 ft 522 kts 91°
2026-05-04 01:53 40.60533 48.84287 38976 ft 522 kts 91°
2026-05-04 01:54 40.60731 48.93743 38967 ft 522 kts 91°
2026-05-04 01:54 40.60921 49.03234 38961 ft 523 kts 91°
2026-05-04 01:55 40.61097 49.12330 38957 ft 523 kts 91°
2026-05-04 01:55 40.61364 49.22028 38950 ft 524 kts 88°
2026-05-04 01:56 40.61901 49.31538 38961 ft 524 kts 87°
2026-05-04 01:56 40.62462 49.41050 38965 ft 524 kts 87°
2026-05-04 01:57 40.63009 49.50592 38974 ft 524 kts 87°
2026-05-04 01:57 40.63540 49.60088 38975 ft 524 kts 87°
2026-05-04 01:58 40.64063 49.69582 38974 ft 524 kts 88°
2026-05-04 01:58 40.64576 49.79090 38983 ft 524 kts 88°
2026-05-04 01:59 40.65084 49.88614 38978 ft 523 kts 88°
2026-05-04 01:59 40.65585 49.98140 38985 ft 524 kts 88°
2026-05-04 02:00 40.66074 50.07585 38982 ft 524 kts 88°
2026-05-04 02:00 40.66559 50.17101 39006 ft 524 kts 88°
2026-05-04 02:01 40.67038 50.26656 38993 ft 523 kts 88°
2026-05-04 02:01 40.67504 50.36080 38995 ft 522 kts 88°
2026-05-04 02:02 40.67963 50.45600 38985 ft 522 kts 88°
2026-05-04 02:02 40.68406 50.55074 38988 ft 522 kts 87°
2026-05-04 02:03 40.68844 50.64523 38991 ft 522 kts 88°
2026-05-04 02:03 40.69279 50.74047 38977 ft 522 kts 88°
2026-05-04 02:04 40.69704 50.83515 38980 ft 522 kts 88°
2026-05-04 02:04 40.70123 50.93012 38982 ft 522 kts 88°
2026-05-04 02:05 40.70535 51.02536 38971 ft 523 kts 88°
2026-05-04 02:05 40.70938 51.11987 38974 ft 523 kts 88°
2026-05-04 02:06 40.71337 51.21511 38971 ft 523 kts 88°
2026-05-04 02:06 40.71729 51.31045 38979 ft 523 kts 88°
2026-05-04 02:07 40.72109 51.40517 38972 ft 522 kts 88°
2026-05-04 02:07 40.72676 51.50015 38980 ft 523 kts 83°
2026-05-04 02:08 40.73962 51.59343 38977 ft 523 kts 78°
2026-05-04 02:08 40.75525 51.68641 38974 ft 523 kts 78°
2026-05-04 02:09 40.77089 51.78009 38973 ft 523 kts 78°
2026-05-04 02:09 40.78617 51.87334 38968 ft 523 kts 78°
2026-05-04 02:10 40.80137 51.96694 38967 ft 523 kts 78°
2026-05-04 02:10 40.81638 52.05996 38969 ft 523 kts 78°
2026-05-04 02:11 40.83142 52.15373 38967 ft 524 kts 78°
2026-05-04 02:11 40.84641 52.24762 38972 ft 524 kts 78°
2026-05-04 02:12 40.86131 52.34137 38973 ft 524 kts 78°
2026-05-04 02:12 40.87615 52.43515 38968 ft 524 kts 78°
2026-05-04 02:13 40.89085 52.52880 38966 ft 523 kts 78°
2026-05-04 02:13 40.90311 52.62333 38966 ft 523 kts 84°
2026-05-04 02:14 40.90837 52.71864 38970 ft 522 kts 88°
2026-05-04 02:14 40.91211 52.81345 38972 ft 522 kts 88°
2026-05-04 02:15 40.91600 52.90914 38975 ft 522 kts 88°
2026-05-04 02:15 40.91999 53.00475 38963 ft 523 kts 88°
2026-05-04 02:16 40.92389 53.09968 38953 ft 522 kts 88°
2026-05-04 02:16 40.92756 53.19445 39117 ft 524 kts 88°
2026-05-04 02:17 40.92932 53.24244 39364 ft 522 kts 88°
2026-05-04 02:17 40.93108 53.29018 39621 ft 521 kts 88°
2026-05-04 02:17 40.93283 53.33781 39853 ft 520 kts 88°
2026-05-04 02:17 40.93458 53.38569 40043 ft 519 kts 88°
2026-05-04 02:18 40.93629 53.43259 40196 ft 519 kts 88°
2026-05-04 02:18 40.93798 53.48001 40334 ft 519 kts 88°
2026-05-04 02:18 40.93969 53.52806 40466 ft 520 kts 87°
2026-05-04 02:18 40.94135 53.57500 40598 ft 520 kts 88°
2026-05-04 02:19 40.94300 53.62248 40757 ft 519 kts 88°
2026-05-04 02:19 40.94465 53.67043 40905 ft 519 kts 88°
2026-05-04 02:19 40.94783 53.76503 40951 ft 519 kts 88°
2026-05-04 02:20 40.95094 53.86002 40947 ft 518 kts 88°
2026-05-04 02:20 40.95398 53.95456 40951 ft 518 kts 88°
2026-05-04 02:21 40.95692 54.04926 40947 ft 518 kts 88°
2026-05-04 02:21 40.95981 54.14426 40940 ft 518 kts 88°
2026-05-04 02:22 40.96261 54.23896 40948 ft 518 kts 88°
2026-05-04 02:22 40.96533 54.33383 40943 ft 519 kts 88°
2026-05-04 02:23 40.96800 54.42919 40953 ft 519 kts 88°
2026-05-04 02:23 40.97058 54.52432 40951 ft 520 kts 88°
2026-05-04 02:24 40.97309 54.61915 40951 ft 520 kts 88°
2026-05-04 02:24 40.97554 54.71438 40954 ft 520 kts 89°
2026-05-04 02:25 40.97789 54.80919 40964 ft 520 kts 89°
2026-05-04 02:25 40.98014 54.90449 40968 ft 520 kts 88°
2026-05-04 02:26 40.98219 54.99963 40979 ft 519 kts 88°
2026-05-04 02:26 40.98417 55.09503 40996 ft 519 kts 88°
2026-05-04 02:27 40.98610 55.18994 41001 ft 520 kts 88°
2026-05-04 02:27 40.98795 55.28529 41012 ft 520 kts 88°
2026-05-04 02:28 40.98975 55.38045 41006 ft 521 kts 88°
2026-05-04 02:28 40.99147 55.47596 41026 ft 521 kts 88°
2026-05-04 02:29 40.99310 55.57147 41018 ft 521 kts 88°
2026-05-04 02:29 40.99469 55.66691 40985 ft 522 kts 89°
2026-05-04 02:30 40.99619 55.76294 40984 ft 522 kts 89°
2026-05-04 02:30 40.99765 55.85889 40995 ft 522 kts 89°
2026-05-04 02:31 40.99916 55.95443 41000 ft 523 kts 89°
2026-05-04 02:31 41.00060 56.05001 40992 ft 523 kts 89°
2026-05-04 02:32 41.00198 56.14614 41001 ft 523 kts 89°
2026-05-04 02:32 41.00328 56.24206 40998 ft 523 kts 88°
2026-05-04 02:33 41.00450 56.33762 40997 ft 523 kts 88°
2026-05-04 02:33 41.00564 56.43337 40989 ft 523 kts 89°
2026-05-04 02:34 41.00938 56.52899 40970 ft 524 kts 82°
2026-05-04 02:34 41.01985 56.62448 40970 ft 524 kts 79°
2026-05-04 02:35 41.03141 56.71872 40994 ft 524 kts 80°
2026-05-04 02:35 41.04289 56.81422 41011 ft 524 kts 80°
2026-05-04 02:36 41.05406 56.90892 41018 ft 524 kts 80°
2026-05-04 02:36 41.06518 57.00402 41017 ft 524 kts 80°
2026-05-04 02:37 41.07617 57.09894 41017 ft 523 kts 80°
2026-05-04 02:37 41.08712 57.19409 41016 ft 523 kts 79°
2026-05-04 02:38 41.09791 57.28868 41015 ft 523 kts 79°
2026-05-04 02:38 41.10871 57.38387 41019 ft 522 kts 79°
2026-05-04 02:39 41.11932 57.47824 41026 ft 521 kts 80°
2026-05-04 02:39 41.12991 57.57320 41028 ft 521 kts 79°
2026-05-04 02:40 41.14039 57.66778 41036 ft 520 kts 80°
2026-05-04 02:40 41.15077 57.76198 41043 ft 519 kts 80°
2026-05-04 02:41 41.16106 57.85639 41043 ft 519 kts 80°
2026-05-04 02:41 41.17127 57.95053 41050 ft 519 kts 80°
2026-05-04 02:42 41.18143 58.04491 41056 ft 518 kts 80°
2026-05-04 02:42 41.19145 58.13935 41058 ft 518 kts 80°
2026-05-04 02:43 41.20136 58.23359 41055 ft 518 kts 80°
2026-05-04 02:43 41.21125 58.32812 41058 ft 518 kts 80°
2026-05-04 02:44 41.22106 58.42247 41063 ft 518 kts 80°
2026-05-04 02:44 41.23079 58.51667 41065 ft 518 kts 79°
2026-05-04 02:45 41.24042 58.61081 41065 ft 517 kts 80°
2026-05-04 02:45 41.24996 58.70478 41066 ft 516 kts 81°
2026-05-04 02:46 41.25943 58.79896 41070 ft 516 kts 81°
2026-05-04 02:46 41.26884 58.89336 41072 ft 516 kts 81°
2026-05-04 02:47 41.27814 58.98724 41072 ft 515 kts 80°
2026-05-04 02:47 41.28733 59.08089 41085 ft 514 kts 81°
2026-05-04 02:48 41.29649 59.17493 41088 ft 514 kts 81°
2026-05-04 02:48 41.30557 59.26902 41085 ft 514 kts 81°
2026-05-04 02:49 41.31451 59.36243 41084 ft 513 kts 80°
2026-05-04 02:49 41.32343 59.45626 41085 ft 513 kts 80°
2026-05-04 02:50 41.33229 59.55038 41087 ft 513 kts 81°
2026-05-04 02:50 41.34224 59.64358 41088 ft 512 kts 76°
2026-05-04 02:51 41.35919 59.73538 41090 ft 509 kts 70°
2026-05-04 02:51 41.38086 59.82428 41092 ft 508 kts 69°
2026-05-04 02:52 41.40287 59.91327 41095 ft 509 kts 69°
2026-05-04 02:52 41.42457 60.00243 41098 ft 508 kts 69°
2026-05-04 02:53 41.44615 60.09183 41097 ft 508 kts 69°
2026-05-04 02:53 41.46761 60.18118 41098 ft 507 kts 69°
2026-05-04 02:54 41.48869 60.27002 41098 ft 507 kts 70°
2026-05-04 02:54 41.50969 60.35949 41099 ft 506 kts 70°
2026-05-04 02:55 41.54105 60.49342 41098 ft 506 kts 70°
2026-05-04 02:56 41.56142 60.58077 41098 ft 506 kts 70°
2026-05-04 02:56 41.58263 60.67034 41096 ft 506 kts 69°
2026-05-04 02:57 41.60565 60.75846 41099 ft 505 kts 68°
2026-05-04 02:57 41.62883 60.84630 41100 ft 505 kts 68°
2026-05-04 02:58 41.65202 60.93476 41101 ft 504 kts 68°
2026-05-04 02:58 41.67496 61.02269 41098 ft 504 kts 68°
2026-05-04 02:59 41.69799 61.11137 41096 ft 504 kts 68°
2026-05-04 02:59 41.72076 61.19937 41098 ft 503 kts 68°
2026-05-04 03:00 41.74342 61.28728 41100 ft 503 kts 68°
2026-05-04 03:00 41.76606 61.37541 41100 ft 502 kts 68°
2026-05-04 03:01 41.78863 61.46356 41106 ft 502 kts 68°
2026-05-04 03:01 41.81107 61.55145 41110 ft 502 kts 68°
2026-05-04 03:02 41.83358 61.64004 41110 ft 502 kts 68°
2026-05-04 03:02 41.85590 61.72818 41106 ft 501 kts 69°
2026-05-04 03:03 41.87814 61.81656 41110 ft 501 kts 69°
2026-05-04 03:03 41.90010 61.90434 41115 ft 501 kts 69°
2026-05-04 03:04 41.92223 61.99303 41116 ft 501 kts 69°
2026-05-04 03:04 41.94406 62.08087 41121 ft 500 kts 69°
2026-05-04 03:05 41.96591 62.16909 41133 ft 500 kts 69°
2026-05-04 03:05 41.98770 62.25728 41132 ft 499 kts 69°
2026-05-04 03:06 42.00951 62.34573 41134 ft 498 kts 69°
2026-05-04 03:06 42.03110 62.43371 41120 ft 498 kts 69°
2026-05-04 03:07 42.05264 62.52172 41134 ft 497 kts 69°
2026-05-04 03:07 42.07394 62.60917 41134 ft 495 kts 69°
2026-05-04 03:08 42.09530 62.69715 41118 ft 494 kts 69°
2026-05-04 03:08 42.11638 62.78442 41124 ft 494 kts 69°
2026-05-04 03:09 42.13749 62.87212 41133 ft 494 kts 69°
2026-05-04 03:09 42.15856 62.95989 41127 ft 493 kts 69°
2026-05-04 03:10 42.17937 63.04701 41117 ft 492 kts 69°
2026-05-04 03:10 42.20027 63.13480 41109 ft 492 kts 69°
2026-05-04 03:11 42.22108 63.22232 41110 ft 492 kts 69°
2026-05-04 03:11 42.24175 63.30963 41110 ft 491 kts 69°
2026-05-04 03:12 42.26244 63.39731 41109 ft 492 kts 69°
2026-05-04 03:12 42.28307 63.48509 41111 ft 492 kts 69°
2026-05-04 03:13 42.30351 63.57241 41110 ft 492 kts 69°
2026-05-04 03:13 42.32407 63.66061 41112 ft 492 kts 70°
2026-05-04 03:14 42.34439 63.74804 41112 ft 491 kts 70°
2026-05-04 03:14 42.36475 63.83594 41107 ft 491 kts 70°
2026-05-04 03:15 42.38502 63.92380 41106 ft 490 kts 70°
2026-05-04 03:15 42.40508 64.01124 41106 ft 490 kts 70°
2026-05-04 03:16 42.42497 64.09950 41111 ft 490 kts 70°
2026-05-04 03:16 42.44460 64.18717 41108 ft 490 kts 70°
2026-05-04 03:17 42.46430 64.27513 41108 ft 490 kts 70°
2026-05-04 03:17 42.48410 64.36322 41105 ft 489 kts 70°
2026-05-04 03:18 42.50373 64.45081 41105 ft 489 kts 70°
2026-05-04 03:18 42.52337 64.53876 41107 ft 488 kts 70°
2026-05-04 03:19 42.54293 64.62669 41105 ft 487 kts 70°
2026-05-04 03:19 42.56219 64.71375 41104 ft 487 kts 70°
2026-05-04 03:20 42.58157 64.80167 41103 ft 486 kts 70°
2026-05-04 03:20 42.60086 64.88946 41101 ft 486 kts 70°
2026-05-04 03:21 42.61995 64.97670 41100 ft 486 kts 70°
2026-05-04 03:21 42.63904 65.06432 41100 ft 487 kts 70°
2026-05-04 03:22 42.65809 65.15211 41095 ft 486 kts 70°
2026-05-04 03:22 42.67707 65.23994 41093 ft 486 kts 70°
2026-05-04 03:23 42.69599 65.32783 41094 ft 485 kts 71°
2026-05-04 03:23 42.71475 65.41533 41092 ft 485 kts 71°
2026-05-04 03:24 42.73343 65.50291 41091 ft 485 kts 71°
2026-05-04 03:24 42.75212 65.59084 41091 ft 485 kts 71°
2026-05-04 03:25 42.77072 65.67860 41089 ft 485 kts 71°
2026-05-04 03:25 42.78923 65.76648 41085 ft 485 kts 71°
2026-05-04 03:26 42.80765 65.85434 41082 ft 485 kts 72°
2026-05-04 03:26 42.82602 65.94231 41084 ft 485 kts 71°
2026-05-04 03:27 42.84430 66.03007 41073 ft 484 kts 71°
2026-05-04 03:27 42.86251 66.11814 41069 ft 484 kts 72°
2026-05-04 03:28 42.88061 66.20655 41066 ft 485 kts 72°
2026-05-04 03:28 42.89860 66.29471 41062 ft 485 kts 71°
2026-05-04 03:29 42.91646 66.38242 41066 ft 485 kts 72°
2026-05-04 03:29 42.93447 66.47130 41062 ft 484 kts 72°
2026-05-04 03:30 42.95224 66.55935 41060 ft 484 kts 72°
2026-05-04 03:30 42.96991 66.64722 41067 ft 484 kts 72°
2026-05-04 03:31 42.98758 66.73548 41050 ft 485 kts 72°
2026-05-04 03:31 43.00516 66.82395 41058 ft 485 kts 72°
2026-05-04 03:32 43.02268 66.91255 41053 ft 485 kts 72°
2026-05-04 03:32 43.04023 67.00159 41060 ft 485 kts 72°
2026-05-04 03:33 43.05767 67.09044 41050 ft 485 kts 72°
2026-05-04 03:33 43.07494 67.17882 41045 ft 485 kts 72°
2026-05-04 03:34 43.09222 67.26761 41057 ft 485 kts 72°
2026-05-04 03:34 43.10938 67.35605 41052 ft 485 kts 72°
2026-05-04 03:35 43.12651 67.44484 41046 ft 485 kts 73°
2026-05-04 03:35 43.14360 67.53403 41044 ft 484 kts 73°
2026-05-04 03:36 43.16058 67.62276 41046 ft 485 kts 73°
2026-05-04 03:36 43.17758 67.71194 41048 ft 485 kts 73°
2026-05-04 03:37 43.19447 67.80108 41046 ft 485 kts 73°
2026-05-04 03:37 43.21109 67.88947 41048 ft 485 kts 73°
2026-05-04 03:38 43.22789 67.97914 41048 ft 484 kts 74°
2026-05-04 03:38 43.24445 68.06780 41059 ft 484 kts 73°
2026-05-04 03:39 43.26098 68.15665 41062 ft 484 kts 74°
2026-05-04 03:39 43.27746 68.24561 41069 ft 484 kts 74°
2026-05-04 03:40 43.29388 68.33478 41068 ft 484 kts 74°
2026-05-04 03:40 43.30701 68.42562 41071 ft 485 kts 79°
2026-05-04 03:41 43.31766 68.51469 41075 ft 484 kts 79°
2026-05-04 03:41 43.32775 68.60625 41075 ft 485 kts 81°
2026-05-04 03:42 43.33560 68.69724 41079 ft 484 kts 82°
2026-05-04 03:42 43.34337 68.78917 41078 ft 484 kts 82°
2026-05-04 03:43 43.35107 68.88004 41075 ft 484 kts 82°
2026-05-04 03:43 43.35878 68.97156 41078 ft 483 kts 82°
2026-05-04 03:44 43.36641 69.06299 41078 ft 484 kts 82°
2026-05-04 03:44 43.37397 69.15468 41069 ft 483 kts 83°
2026-05-04 03:45 43.38167 69.24596 41078 ft 484 kts 82°
2026-05-04 03:45 43.38966 69.33768 41078 ft 484 kts 82°
2026-05-04 03:46 43.39751 69.42885 41083 ft 484 kts 82°
2026-05-04 03:46 43.40536 69.52089 41083 ft 485 kts 82°
2026-05-04 03:47 43.41309 69.61234 41092 ft 484 kts 82°
2026-05-04 03:47 43.42072 69.70370 41096 ft 485 kts 83°
2026-05-04 03:48 43.42839 69.79584 41097 ft 485 kts 83°
2026-05-04 03:48 43.43619 69.88738 41101 ft 485 kts 83°
2026-05-04 03:49 43.44401 69.97935 41096 ft 485 kts 83°
2026-05-04 03:49 43.45166 70.07037 41106 ft 485 kts 83°
2026-05-04 03:50 43.45931 70.16225 41102 ft 485 kts 83°
2026-05-04 03:50 43.46687 70.25393 41098 ft 485 kts 83°
2026-05-04 03:51 43.47437 70.34593 41095 ft 484 kts 83°
2026-05-04 03:51 43.48176 70.43742 41096 ft 485 kts 83°
2026-05-04 03:52 43.48915 70.52972 41092 ft 484 kts 83°
2026-05-04 03:52 43.49640 70.62124 41090 ft 485 kts 83°
2026-05-04 03:53 43.50316 70.70727 41092 ft 484 kts 84°
2026-05-04 03:53 43.51057 70.80255 41090 ft 485 kts 84°
2026-05-04 03:54 43.51759 70.89459 41090 ft 484 kts 84°
2026-05-04 03:54 43.52438 70.98659 41090 ft 485 kts 84°
2026-05-04 03:55 43.53113 71.07841 41092 ft 485 kts 84°
2026-05-04 03:55 43.53787 71.17080 41094 ft 485 kts 84°
2026-05-04 03:56 43.54452 71.26302 41098 ft 485 kts 84°
2026-05-04 03:56 43.55105 71.35465 41103 ft 485 kts 84°
2026-05-04 03:57 43.55755 71.44692 41103 ft 485 kts 84°
2026-05-04 03:57 43.56398 71.53909 41107 ft 485 kts 84°
2026-05-04 03:58 43.57348 71.67747 41114 ft 486 kts 85°
2026-05-04 03:58 43.57974 71.76996 41108 ft 486 kts 85°
2026-05-04 03:59 43.58591 71.86200 41113 ft 486 kts 85°
2026-05-04 03:59 43.59201 71.95427 41117 ft 485 kts 85°
2026-05-04 04:00 43.59805 72.04670 41117 ft 485 kts 85°
2026-05-04 04:00 43.60402 72.13927 41118 ft 486 kts 85°
2026-05-04 04:01 43.60989 72.23164 41118 ft 487 kts 85°
2026-05-04 04:01 43.61573 72.32455 41121 ft 487 kts 85°
2026-05-04 04:02 43.62144 72.41669 41123 ft 487 kts 85°
2026-05-04 04:02 43.62713 72.50955 41122 ft 487 kts 85°
2026-05-04 04:03 43.63276 72.60266 41113 ft 488 kts 85°
2026-05-04 04:03 43.63827 72.69492 41112 ft 489 kts 86°
2026-05-04 04:04 43.64375 72.78789 41113 ft 488 kts 86°
2026-05-04 04:04 43.64917 72.88122 41108 ft 489 kts 86°
2026-05-04 04:05 43.65449 72.97433 41109 ft 490 kts 86°
2026-05-04 04:05 43.65974 73.06775 41106 ft 489 kts 86°
2026-05-04 04:06 43.66492 73.16092 41111 ft 491 kts 86°
2026-05-04 04:06 43.67006 73.25476 41104 ft 491 kts 86°
2026-05-04 04:07 43.67508 73.34795 41111 ft 491 kts 86°
2026-05-04 04:07 43.68007 73.44170 41106 ft 491 kts 86°
2026-05-04 04:08 43.68499 73.53539 41110 ft 492 kts 86°
2026-05-04 04:08 43.68741 73.58227 40913 ft 491 kts 86°
2026-05-04 04:08 43.68980 73.62858 40668 ft 489 kts 86°
2026-05-04 04:09 43.69218 73.67513 40439 ft 486 kts 87°
2026-05-04 04:09 43.69436 73.72115 40195 ft 483 kts 89°
2026-05-04 04:09 43.69511 73.76715 39950 ft 480 kts 92°
2026-05-04 04:09 43.69422 73.81330 39721 ft 479 kts 94°
2026-05-04 04:10 43.69292 73.85883 39477 ft 479 kts 94°
2026-05-04 04:10 43.69154 73.90481 39243 ft 479 kts 94°
2026-05-04 04:10 43.69017 73.95034 39006 ft 479 kts 94°
2026-05-04 04:10 43.68883 73.99580 38766 ft 478 kts 94°
2026-05-04 04:11 43.68749 74.04158 38535 ft 478 kts 94°
2026-05-04 04:11 43.68614 74.08715 38315 ft 478 kts 94°
2026-05-04 04:11 43.68479 74.13249 38085 ft 478 kts 94°
2026-05-04 04:11 43.68340 74.17848 37857 ft 477 kts 94°
2026-05-04 04:12 43.68201 74.22350 37630 ft 476 kts 94°
2026-05-04 04:12 43.68061 74.26884 37398 ft 476 kts 94°
2026-05-04 04:12 43.67921 74.31376 37171 ft 475 kts 94°
2026-05-04 04:12 43.67781 74.35899 36939 ft 474 kts 94°
2026-05-04 04:13 43.67638 74.40452 36711 ft 474 kts 94°
2026-05-04 04:13 43.67496 74.44918 36462 ft 473 kts 94°
2026-05-04 04:13 43.67352 74.49418 36206 ft 473 kts 94°
2026-05-04 04:13 43.67206 74.53914 35998 ft 473 kts 94°
2026-05-04 04:14 43.67057 74.58424 35798 ft 473 kts 94°
2026-05-04 04:14 43.66907 74.62946 35588 ft 473 kts 94°
2026-05-04 04:14 43.66757 74.67422 35379 ft 472 kts 95°
2026-05-04 04:14 43.66604 74.71909 35173 ft 472 kts 94°
2026-05-04 04:15 43.66448 74.76426 34962 ft 471 kts 94°
2026-05-04 04:15 43.66292 74.80949 34760 ft 471 kts 95°
2026-05-04 04:15 43.66136 74.85376 34545 ft 471 kts 94°
2026-05-04 04:15 43.65975 74.89909 34286 ft 470 kts 94°
2026-05-04 04:16 43.65815 74.94376 34007 ft 471 kts 94°
2026-05-04 04:16 43.65651 74.98897 33725 ft 471 kts 94°
2026-05-04 04:16 43.65488 75.03346 33450 ft 472 kts 94°
2026-05-04 04:16 43.65320 75.07886 33161 ft 473 kts 94°
2026-05-04 04:17 43.65152 75.12367 32858 ft 475 kts 94°
2026-05-04 04:17 43.64982 75.16844 32437 ft 476 kts 94°
2026-05-04 04:17 43.64808 75.21407 31927 ft 478 kts 94°
2026-05-04 04:17 43.64631 75.25991 31270 ft 478 kts 94°
2026-05-04 04:18 43.64453 75.30557 30606 ft 478 kts 94°
2026-05-04 04:18 43.64275 75.35095 29936 ft 478 kts 94°
2026-05-04 04:18 43.64097 75.39635 29266 ft 478 kts 94°
2026-05-04 04:18 43.63915 75.44200 28569 ft 478 kts 94°
2026-05-04 04:19 43.63730 75.48747 27917 ft 477 kts 94°
2026-05-04 04:19 43.63358 75.53270 27336 ft 473 kts 105°
2026-05-04 04:19 43.62048 75.57327 26769 ft 467 kts 126°
2026-05-04 04:19 43.59820 75.60549 26507 ft 464 kts 142°
2026-05-04 04:20 43.57079 75.62801 26209 ft 462 kts 156°
2026-05-04 04:20 43.54035 75.64014 25791 ft 457 kts 171°
2026-05-04 04:20 43.50856 75.64106 25347 ft 453 kts 186°
2026-05-04 04:20 43.47840 75.63111 24927 ft 449 kts 198°
2026-05-04 04:21 43.44904 75.61729 24478 ft 446 kts 195°
2026-05-04 04:21 43.41840 75.61289 24001 ft 440 kts 175°
2026-05-04 04:21 43.38934 75.62231 23655 ft 435 kts 158°
2026-05-04 04:21 43.36325 75.64336 23263 ft 434 kts 140°
2026-05-04 04:22 43.34303 75.67364 22863 ft 431 kts 124°
2026-05-04 04:22 43.33024 75.70976 22442 ft 429 kts 108°
2026-05-04 04:22 43.32545 75.74996 22037 ft 426 kts 91°
2026-05-04 04:22 43.32916 75.79015 21644 ft 426 kts 75°
2026-05-04 04:23 43.33736 75.82843 21230 ft 423 kts 77°
2026-05-04 04:23 43.34100 75.86823 20753 ft 419 kts 91°
2026-05-04 04:23 43.33849 75.90781 20316 ft 415 kts 96°
2026-05-04 04:23 43.33510 75.94656 19865 ft 411 kts 96°
2026-05-04 04:24 43.33147 75.98531 19430 ft 407 kts 97°
2026-05-04 04:24 43.32774 76.02337 18995 ft 403 kts 97°
2026-05-04 04:24 43.32400 76.06104 18580 ft 400 kts 97°
2026-05-04 04:24 43.32023 76.09856 18129 ft 396 kts 97°
2026-05-04 04:25 43.31646 76.13613 17697 ft 392 kts 98°
2026-05-04 04:25 43.31269 76.17297 17337 ft 389 kts 97°
2026-05-04 04:25 43.30906 76.20879 16768 ft 376 kts 97°
2026-05-04 04:25 43.30557 76.24317 16436 ft 357 kts 97°
2026-05-04 04:26 43.30213 76.27673 16069 ft 351 kts 97°
2026-05-04 04:26 43.29876 76.30983 15907 ft 351 kts 97°
2026-05-04 04:26 43.29538 76.34266 15809 ft 352 kts 97°
2026-05-04 04:26 43.29198 76.37563 15648 ft 350 kts 97°
2026-05-04 04:27 43.28855 76.40862 15542 ft 349 kts 96°
2026-05-04 04:27 43.28514 76.44152 15437 ft 348 kts 97°
2026-05-04 04:27 43.28174 76.47424 15352 ft 345 kts 97°
2026-05-04 04:27 43.27837 76.50648 15000 ft 342 kts 97°
2026-05-04 04:28 43.27502 76.53861 14490 ft 343 kts 97°
2026-05-04 04:28 43.27163 76.57082 14018 ft 342 kts 96°
2026-05-04 04:28 43.26827 76.60304 13669 ft 340 kts 97°
2026-05-04 04:28 43.26699 76.63524 13167 ft 339 kts 81°
2026-05-04 04:29 43.27368 76.66546 12802 ft 334 kts 62°
2026-05-04 04:29 43.28637 76.69167 12467 ft 331 kts 53°
2026-05-04 04:29 43.29974 76.71739 12044 ft 330 kts 54°
2026-05-04 04:29 43.31290 76.74304 11798 ft 327 kts 54°
2026-05-04 04:30 43.32585 76.76849 11569 ft 326 kts 55°
2026-05-04 04:30 43.33871 76.79385 11267 ft 324 kts 54°
2026-05-04 04:30 43.35156 76.81930 10952 ft 324 kts 54°
2026-05-04 04:30 43.36422 76.84450 10639 ft 322 kts 54°
2026-05-04 04:31 43.37696 76.86981 10471 ft 318 kts 55°
2026-05-04 04:31 43.38934 76.89453 10247 ft 315 kts 55°
2026-05-04 04:31 43.40167 76.91911 10069 ft 310 kts 56°
2026-05-04 04:31 43.41380 76.94335 9863 ft 305 kts 55°
2026-05-04 04:32 43.42562 76.96693 9653 ft 301 kts 54°
2026-05-04 04:32 43.43753 76.99070 9414 ft 297 kts 54°
2026-05-04 04:32 43.44907 77.01378 9211 ft 293 kts 55°
2026-05-04 04:32 43.46059 77.03687 8966 ft 289 kts 54°
2026-05-04 04:33 43.47183 77.05940 8745 ft 284 kts 54°
2026-05-04 04:33 43.48290 77.08166 8530 ft 280 kts 54°
2026-05-04 04:33 43.49388 77.10368 8288 ft 279 kts 54°
2026-05-04 04:33 43.50471 77.12543 8039 ft 279 kts 54°
2026-05-04 04:34 43.51576 77.14764 7791 ft 278 kts 54°
2026-05-04 04:34 43.52654 77.16930 7659 ft 274 kts 54°
2026-05-04 04:34 43.53592 77.19187 7338 ft 272 kts 75°
2026-05-04 04:34 43.53571 77.21732 7024 ft 268 kts 110°
2026-05-04 04:35 43.52511 77.23778 6682 ft 266 kts 145°
2026-05-04 04:35 43.50945 77.25069 6376 ft 261 kts 149°
2026-05-04 04:35 43.49329 77.26152 6161 ft 258 kts 168°
2026-05-04 04:35 43.47592 77.25980 5882 ft 252 kts 206°
2026-05-04 04:36 43.46096 77.24832 5654 ft 246 kts 211°
2026-05-04 04:36 43.44678 77.23563 5431 ft 239 kts 226°
2026-05-04 04:36 43.43734 77.21748 5159 ft 230 kts 241°
2026-05-04 04:36 43.42981 77.19864 4880 ft 225 kts 242°
2026-05-04 04:37 43.40551 77.14685 4233 ft 196 kts 236°
2026-05-04 04:37 43.39808 77.13208 4231 ft 185 kts 238°
2026-05-04 04:38 43.39397 77.11569 4236 ft 185 kts 272°
2026-05-04 04:38 43.39857 77.09953 4244 ft 189 kts 310°
2026-05-04 04:38 43.40856 77.08620 4286 ft 211 kts 318°
2026-05-04 04:38 43.42001 77.07305 4267 ft 215 kts 320°
2026-05-04 04:39 43.43172 77.05996 4247 ft 215 kts 320°
2026-05-04 04:39 43.44322 77.04717 4233 ft 216 kts 320°
2026-05-04 04:39 43.45600 77.03686 4165 ft 209 kts 348°
2026-05-04 04:39 43.46958 77.03966 4191 ft 195 kts 26°
2026-05-04 04:40 43.47968 77.05134 4212 ft 191 kts 54°
2026-05-04 04:40 43.48553 77.06795 4233 ft 192 kts 68°
2026-05-04 04:40 43.49007 77.08510 4229 ft 193 kts 69°
2026-05-04 04:40 43.49527 77.10210 4244 ft 193 kts 63°
2026-05-04 04:41 43.50161 77.11829 4246 ft 193 kts 58°
2026-05-04 04:41 43.50889 77.13388 4240 ft 192 kts 55°
2026-05-04 04:41 43.51633 77.14892 4229 ft 192 kts 54°
2026-05-04 04:41 43.52396 77.16425 4240 ft 192 kts 54°
2026-05-04 04:42 43.53147 77.17941 4241 ft 192 kts 57°
2026-05-04 04:42 43.53593 77.19670 4239 ft 193 kts 83°
2026-05-04 04:42 43.53460 77.21478 4248 ft 194 kts 108°
2026-05-04 04:42 43.52781 77.23076 4249 ft 193 kts 134°
2026-05-04 04:43 43.51728 77.24219 4264 ft 193 kts 147°
2026-05-04 04:43 43.50602 77.25214 4250 ft 193 kts 148°
2026-05-04 04:43 43.49396 77.25974 4240 ft 191 kts 169°
2026-05-04 04:43 43.48078 77.25926 4279 ft 190 kts 197°
2026-05-04 04:44 43.46874 77.25217 4295 ft 189 kts 208°
2026-05-04 04:44 43.45694 77.24383 4298 ft 189 kts 209°
2026-05-04 04:44 43.44610 77.23425 4278 ft 187 kts 229°
2026-05-04 04:44 43.43872 77.21964 4284 ft 184 kts 240°
2026-05-04 04:45 43.43273 77.20473 4259 ft 171 kts 242°
2026-05-04 04:45 43.42697 77.19101 4234 ft 161 kts 239°
2026-05-04 04:45 43.42107 77.17826 4188 ft 160 kts 238°
2026-05-04 04:47 43.38416 77.10403 2986 ft 153 kts 236°
2026-05-04 04:47 43.37826 77.09209 2797 ft 152 kts 236°
2026-05-04 04:47 43.37232 77.08012 2600 ft 152 kts 235°
2026-05-04 04:47 43.36637 77.06821 2365 ft 149 kts 236°
2026-05-04 04:48 43.36073 77.05686 2252 ft 137 kts 235°
2026-05-04 04:49 43.35026 77.03569 2241 ft 59 kts 236°
2026-05-04 04:49 43.34823 77.03137 2239 ft 36 kts 246°
2026-05-04 04:49 43.34779 77.02804 2238 ft 36 kts 267°
2026-05-04 04:49 43.34771 77.02544 2236 ft 16 kts 268°
2026-05-04 04:50 43.34778 77.02383 2236 ft 17 kts 274°
2026-05-04 04:50 43.34786 77.02203 2233 ft 20 kts 274°
2026-05-04 04:50 43.34795 77.02000 2232 ft 22 kts 274°
2026-05-04 04:50 43.34805 77.01781 2232 ft 23 kts 274°
2026-05-04 04:51 43.34816 77.01562 2232 ft 21 kts 273°
2026-05-04 04:51 43.34779 77.01406 2232 ft 13 kts 235°
2026-05-04 04:51 43.34744 77.01326 2235 ft 6 kts 244°
2026-05-04 04:51 43.34735 77.01300 2236 ft 0 kts 245°